Timeline UpdatesTrip UpdatesNews PostsPvt PostsTravel TipsAdmin PostsConv PostsFollowed PostsChat RequestsBlog PostsPNR Posts

Disclaimer
Search
 
 
Wed Sep 3, 2014 00:31:42 ISTHomeTrainsΣChainsAtlasPNRForumGalleryNewsFAQTripsMembersLoginFeedback
No Recent News for this Train
Other Trains in the News **new
Latest...
Train No.16031 / 16032 Chennai Central – Jammutawi – Chennai Central Tri-weekly Express trains will be temporarily augmented by 1 Sleeper Class coach from 02.02.2014 to 13.03.2014 ex. Chennai Central and from 04.02.2014 to 15.03.2014 ex. Jammutawi.
Wed Nov 27, 2013 (07:28PM)
⇐ Return Journey: Train# 16031

16032/Andaman Express

Time-Table HAS CHANGED.
Sep 01 (11:37PM)
Change Departure Station:
Change Arrival Station:
Post a Train Travel TipPost a Train Travel Tip **new
Post a Comment/Question/Picture/VideoPost a Comment/Question/Picture/Video
Inaugural Run
Sun May 01, 1988
Pantry/Catering
✕ NO Pantry Car
✓ Catering Avbl
RSA - Rake Sharing
16031/16032/16093/16094/12755/12756 (renumbered 22613/22614) has RSA.
Rake/Coach Composition
LOCO-SLR-UR-UR-B1-S1-S2-S3-S4-S5-S6-S7-UR-UR-UR-SLR-HCPV-HCPV-HCPV
Loco
JAT-NDLS> TKD WDM3A/WDP3A NDLS-MAS> ED WAP4
News    PNR    Forum    Time-Table    Availability    Fare Chart    Map    Arr/Dep History    Trips    Gallery    ΣChains    X/O    Timeline    
Travel Time: 39h 54m    51 halts    Distance: 1963 km    Avg Speed: 49 km/hr
Type: Mail/Express
Zone: SR/Southern
Departs @ 23:45
Platform# 2
  T  FS
Jammu Tawi/JAT 
Arrives @ 15:39 +2 nights
Platform# 2
SM  T  
Sirpur Kaghaznagar/SKZR 

51 halts. 287 intermediate Stations between Jammu Tawi and Sirpur Kaghaznagar

Show ALL intermediate Stations  Show Old Time-Table

#CodeStation NameX/OArrivesAvgDepartsAvgHaltPFDay#KmSpeedElevZoneAddress
1JAT»Jammu Tawi (3)»  -23:45-210.065337mNRJammu 180002, Jammu and Kashmir
2SMBXSamba (2)  00:15-00:17-2m1232.764365mNRDist. Samba, Jammu and Kashmir
3KTHUKathua (2)  00:58-01:00-2m2276.350396mNRdistt. kathua, Jammu and Kashmir
4PTKCPathankot Cantt (3)  01:28-01:33-5m1299.457328mNRPathankot By Pass Ph:0186-2251594, Punjab
5MEXMukerian (3)  02:15-02:17-2m12139.353257mNRMukerian distt. hosiharpur, Punjab
6DZADasuya (2)X  02:34-02:36-2m12154.358251mNRDasuya distt. hoshiarpur, Punjab
7TDOTanda Urmar (3)  02:52-02:54-2m22169.762239mNRUrmar Tanda, Punjab
8JRCJalandhar Cantt. Junction (3)X  03:35-03:40-5m32211.954239mNRNear Rama Mandi, Punjab
9PGWPhagwara Junction (3)  03:58-04:00-2m12228.275245mNRPhagwara, Punjab
10PHRPhillaur Junction (3)X  04:18-04:20-2m12250.820246mNRPhillaur, Punjab
11LDHLudhiana Junction (7)X  04:50 05:00-05:00 05:15-10 15m42263.963246mNRLudhiana 141001, Punjab
12QRPKila Raipur (1)  05:32-05:34-2m12281.651262mNRDelhon Pakhowal Rd, Punjab
13AHHAhmadgarh (1)  05:43-05:45-2m12289.343256mNRAhmedgarh, Punjab
14METMalerkotla (2)  06:13-06:15-2m12309.150248mNRMalerkotla., Punjab
15DUIDhuri Junction (4)X  06:35-07:00-25m--2326.064248mNRDhuri, Punjab
16SAGSangrur (2)X  07:15-07:17-2m12342.035239mNRSangrur, Punjab
17SFMSunam (1)  07:39-07:41-2m12354.871235mNRSunam, Punjab
18LHALehra Gaga (1)  07:59-08:01-2m12376.119227mNRSangrur, Punjab
19JHLJakhal Junction  08:55-09:00-5m--2393.067225mNRJakhal, Haryana
20TUNTohana (2)  09:11-09:13-2m--2405.261232mNRTohana, Haryana
21NRWNarwana Junction (4)X  09:38-09:40-2m--2430.765235mNRWay to Narwana, Haryana
22UCAUchana  09:54-09:56-2m--2445.958225mNRDistrict Jind, Haryana
23BZOBarsola  10:06-10:08-2m--2455.534224mNRDistrict Jind, Haryana
24JINDJind Junction (3)X  10:24-10:27-3m--2464.673222mNR126102., Haryana
25JNAJulana  10:50 10:48-10:52 10:50-2m--2490.367226mNRJulana, Haryana
26ROKRohtak Junction (3)  11:45 11:18-11:47 11:20-2m12521.773220mNRRohtak, Haryana
27BGZBahadurgarh  12:19 11:53-12:21 11:55-2m--2562.029220mNRBahadurgarh, Haryana
28SSBShakur Basti  12:56 12:36-12:58 12:38-2m--2581.913216mNRPitampura, Delhi NCT
29NDLSNew Delhi (16)X  13:35 13:30-14:30 14:15-55 45m72592.825215mNRNew Delhi, Delhi NCT
30NZMDelhi Hazrat Nizamuddin (7)X  14:45 14:33-14:47 14:35-2m42600.245209mNRNew Delhi 110013, Delhi NCT
31FDBFaridabad (4)  15:13 15:03-15:15 15:05-2m32620.949206mNRold Faridabad, Haryana
32MTJMathura Junction (10)XO  17:25-17:30-5m12734.154179mNCRMathura, Uttar Pradesh
33AGCAgra Cantt. (6)X  18:30-18:35-5m12787.890174mNCRAgra, Uttar Pradesh
34MRAMorena (3)  19:28-19:30-2m12867.255176mNCRMorena, Madhya Pradesh
35GWLGwalior Junction (4)X  20:12-20:15-3m12905.873214mNCRGwalior, Madhya Pradesh
36JHSJhansi Junction (7)  22:00 21:35-22:08 21:45-8 10m321003.567259mNCRJhansi, Uttar Pradesh
37BABBabina (3)  22:43 22:08-22:45 22:10-2m121029.044285mNCRBabina, Uttar Pradesh
38BINABina Junction (4)X  01:05-01:10-5m231156.776414mWCRJn Pt - KATNI/GUNA/ BPL/JHS, Madhya Pradesh
39BPLBhopal Junction (6)X  02:55 03:00-03:00 03:05-5m131295.339497mWCRBhopal, Madhya Pradesh
40ETItarsi Junction (7)X  05:25-05:30-5m--31387.073329mWCRItarsi 461111, Madhya Pradesh
41GDYAGhoradongri (3)  06:28-06:30-2m--31457.447 CRBetul, Madhya Pradesh
42BZUBetul (3)  07:15 07:16-07:18-3 2m--31493.353644mCRBetul, Madhya Pradesh
43AMLAAmla Junction (5)  07:44-07:46-2m--31516.281733mCRAmla Distt. Betul, Madhya Pradesh
44MTYMultai (2)  08:03-08:05-2m--31539.157762mCRMultai, Madhya Pradesh
45PARPandhurna (2)X  08:48-08:50-2m--31579.860481mCRDistt: Chhindwara, Madhya Pradesh
46NGPNagpur Junction (8)  10:35-10:45-10m231684.274314mCRNagpur 440001, Maharashtra
47SEGMSewagram Junction (5)  11:47-11:49-2m--31760.474279mCRWardha, Maharashtra
48HGTHinganghat (3)  12:16-12:18-2m--31793.578228mCRHinganghat, Maharashtra
49WRRWarora (2)  12:48-12:50-2m--31832.653214mCRWarora, Maharashtra
50MJRIMajri Junction (3)X  13:04-13:06-2m231845.068198mCRDist. Chandrapur, Maharashtra
51CDChandrapur Maharashtra (3)X  13:35 13:36-13:38-3 2m--31879.016194mCRChandrapur 442401, Maharashtra
52BPQBalharshah Junction (5)  14:30-14:40-10m--31892.871188mCRBallarpur. Ph : 07172 - 240341, Maharashtra
53SKZR•Sirpur Kaghaznagar (3)•X  15:39-15:41-2m231962.585181mSCRAdilabad Dist., Telangana
54BPABellampalli (3)  16:09 16:08-16:10-1 2m232001.085205mSCRTel:.08735 223298, Telangana
55MCIManchiryal (3)X  16:25 16:24-16:26-1 2m232020.892159mSCRAdilabad Dist., Telangana
56RDMRamagundam (3)  16:36 16:35-16:37-1 2m232034.688170mSCRKarimnagar Dist. Ph : 08728 - 255237, Telangana
57PDPLPeddapalli Junction (2)  16:50 16:49-16:51-1 2m232052.188228mSCRKarimnagar Dist., Telangana
58JMKTJamikunta (2)  17:19 17:18-17:20-1 2m232091.634236mSCRKarimnagar Dist., Telangana
59WLWarangal (3)X  18:38-18:43-5m132135.782271mSCRWarangal., Telangana
60KDMKesamudram (2)  19:17 19:16-19:18-1 2m132180.990223mSCRWarangal Dist., Telangana
61MABDMahbubabad (2)X  19:29 19:28-19:30-1 2m132195.851200mSCRWarangal Dist., Telangana
62DKJDornakal Junction (3)  20:00 19:59-20:01-1 2m232220.281153mSCRWarangal District, Telangana
63KMTKhammam (2)X  20:18-20:20-2m132243.396118mSCRKhammam 507001, Telangana
64MDRMadhira (2)X  20:49 20:48-20:50-1 2m132288.11461mSCRKhammam Dist., Telangana
65BZAVijayawada Junction (10)X  00:40-01:00-20m842343.73324mSCRVijayawada 520001, Andhra Pradesh
66NGNTNew Guntur (1)  01:50 01:55-01:52 01:57-2m142373.82330mSCRGuntur City, Andhra Pradesh
67TELTenali Junction (5)  03:04 03:03-03:05-1 2m--42398.77816mSCRTel: 08644-227834, Andhra Pradesh
68NDONidubrolu (3)X  03:22-03:24-2m--42420.8699mSCRNidubrolu, Andhra Pradesh
69BPPBapatla (3)  03:42-03:44-2m--42441.38210mSCRBapatla, Andhra Pradesh
70CLXChirala (4)X  03:55-03:57-2m--42456.4698mSCRChirala, Andhra Pradesh
71OGLOngole (3)X  04:40-04:42-2m342505.77712mSCROngole, Andhra Pradesh
72SKMSingarayakonda (2)  05:04-05:06-2m242534.010326mSCRSingarayakonda, Andhra Pradesh
73KVZKavali (4)  05:28-05:30-2m242571.78221mSCRKavali, Andhra Pradesh
74BTTRBitragunta (2)X  05:42-05:44-2m242588.26615mSCRBitragunta, Andhra Pradesh
75NLRNellore (4)  06:15-06:17-2m342622.53021mSCRNellore, Andhra Pradesh
76GDRGudur Junction (3)  07:35-07:40-5m142661.07219mSCRGudur, Andhra Pradesh
77NYPNayadupeta (3)X  08:03-08:05-2m242688.79133mSRNayudupeta, Andhra Pradesh
78SPESullurupeta (3)  08:23-08:25-2m242715.9479mSR524121., Andhra Pradesh
79MASChennai Central (12)  10:10----42798.4-9mSRChennai 600003, Tamil Nadu
Scroll to Top
Scroll to Bottom